Regional Weather Roundup
Issued by NWS

Home | Current Version | Previous Version | Graphics & Text | Print | Product List | Glossary On
Versions: 1 2 3 4 5 6 7 8 9 10 11 12 13 14 15 16 17 18 19 20 21 22 23 24 25 26 27 28 29 30 31 32 33 34 35 36 37 38 39 40 41 42 43 44 45 46 47 48 49 50
000
ASUS45 KSLC 242210
RWRUT

UTAH REGIONAL WEATHER ROUNDUP
NATIONAL WEATHER SERVICE SALT LAKE CITY UT
400 PM MDT TUE MAY 24 2016

UTZ001>011-023>025-242300-

NORTHERN UTAH

CITY           SKY/WX    TMP DP  RH WIND       PRES   REMARKS
BRIGHAM CITY     N/A     63  34  34 SW17      29.84R
DUGWAY         PTSUNNY   61  39  45 S6        29.90R
HILL AFB       MOSUNNY   54  43  66 NE6       29.87R
LOGAN          CLOUDY    63  36  36 S15       29.83R
OGDEN          CLOUDY    58  38  47 SE13      29.88R
PROVO AIRPORT  PTSUNNY   70  30  23 SE9       29.81F
SALT LAKE CITY LGT RAIN  64  40  41 N24       29.83R
VERNAL         MOSUNNY   66  31  27 W15G23    29.84R
WENDOVER       CLOUDY    61  32  33 W26G35    29.88R
HEBER CITY     MOSUNNY   68  27  21 SW15G25   29.83S
WEST JORDAN    CLOUDY    63  37  39 NW20G30   29.84R

$$

UTZ012>022-026-027-242300-

SOUTHERN/CENTRAL UTAH

CITY           SKY/WX    TMP DP  RH WIND       PRES   REMARKS
BLANDING       SUNNY     72  17  12 SW20G32   29.98F
BRYCE CANYON   CLOUDY    57  21  24 S15G26    30.00F
CEDAR CITY     PTSUNNY   65  28  24 SE20G26   29.91S
DELTA          PTSUNNY   64  27  24 SW7       29.87S
HANKSVILLE     MOSUNNY   75  19  12 SW18G35   29.84F
MILFORD        MOSUNNY   68  20  16 S28G37    29.86R
MOAB/CYNLANDS  MOSUNNY   77  18  11 S18G40    29.78F
PRICE          CLOUDY    58  30  34 W21G31    29.91R
ST GEORGE      PTCLDY    79  25  13 SW22G36   29.83S

$$

REGIONAL REPORTS     COLORADO/ARIZONA

CITY           SKY/WX    TMP DP  RH WIND       PRES   REMARKS
CRAIG, CO      CLOUDY    67  24  19 S20G30    29.86S
GRAND JUNCTION MOSUNNY   77  18  11 SW22G35   29.81F
RIFLE          SUNNY     76  21  12 SW18G37   29.84S
MONTROSE       SUNNY     76  19  11 SW26G35   29.88R
CORTEZ         SUNNY     74  12   9 SW26G37   29.95F
PAGE, AZ       MOSUNNY   77  21  12 SW14G28   29.83F
GRAND CANYON   MOSUNNY   66  21  18 SW26G32   30.01S
KINGMAN        NOT AVBL
FLAGSTAFF      SUNNY     60  24  25 SW17G40   30.06S

$$

REGIONAL REPORTS    NEVADA/IDAHO/WYOMING

CITY           SKY/WX    TMP DP  RH WIND       PRES   REMARKS
LAS VEGAS, NV  MOSUNNY   78  30  17 S15G25    29.79S
ELY            LGT RAIN  49  32  52 VRB5      29.94R
ELKO           LGT RAIN  46  42  86 W6        29.95S
POCATELLO, ID  CLOUDY    63  38  39 W8        29.84S
BURLEY         PTSUNNY   59  41  51 W6        29.84S
EVANSTON, WY   CLOUDY    51  38  60 W22G30    29.93S
ROCK SPRINGS   TSTM      47  39  74 W24G46    29.93R
KEMMERER         N/A     50  32  50 S17G26    29.94R

$$



USA.gov is the U.S. government's official web portal to all federal, state and local government web resources and services.